Regional Weather Roundup
Issued by NWS Charleston, WV

Home | Current Version | Previous Version | Graphics & Text | Print | Product List | Glossary On
Versions: 1 2 3 4 5 6 7 8 9 10 11 12 13 14 15 16 17 18 19 20 21 22 23 24 25 26 27 28
000
ASUS41 KRLX 241410
RWRRLX
West Virginia Regional Weather Roundup
National Weather Service Charleston WV
1000 AM EDT MON JUL 24 2017

Note: "fair" indicates few or no clouds below 12,000 feet with no
significant weather and/or obstructions to visibility.

WVZ003-241500-
Northern Panhandle of West Virginia

CITY           SKY/WX    TMP DP  RH WIND       PRES   REMARKS
WHEELING       CLOUDY    70  66  87 SW7       29.89S
$$

WVZ009-241500-
Northwest West Virginia

CITY           SKY/WX    TMP DP  RH WIND       PRES   REMARKS
PARKERSBURG    PTSUNNY   74  70  87 VRB3      29.92S
$$

WVZ006-241500-
Western West Virginia

CITY           SKY/WX    TMP DP  RH WIND       PRES   REMARKS
HUNTINGTON     MOSUNNY   79  71  76 VRB5      29.91S
$$

WVZ015-241500-
West Central West Virginia

CITY           SKY/WX    TMP DP  RH WIND       PRES   REMARKS
CHARLESTON     MOSUNNY   79  69  71 SW7       29.92F
$$

WVZ022-031-241500-
North Central West Virginia

CITY           SKY/WX    TMP DP  RH WIND       PRES   REMARKS
CLARKSBURG     CLOUDY    72  66  81 W6        29.91S
MORGANTOWN     PTSUNNY   71  65  81 SW5       29.92R
$$

WVZ025-035-042-045-241500-
Southern West Virginia

CITY           SKY/WX    TMP DP  RH WIND       PRES   REMARKS
BECKLEY        CLOUDY    74  65  73 W7        30.00F
LOGAN          CLOUDY    75  72  88 CALM      29.97S
BLUEFIELD      CLOUDY    69  65  86 W8        30.04S
LEWISBURG      CLOUDY    76  64  67 NW7       29.98S
$$

WVZ047-241500-
Northern Mountains of West Virginia

CITY           SKY/WX    TMP DP  RH WIND       PRES   REMARKS
ELKINS         CLOUDY    73  64  73 VRB3      29.96S
$$

WVZ052-241500-
Eastern Panhandle of West Virginia

CITY           SKY/WX    TMP DP  RH WIND       PRES   REMARKS
MARTINSBURG    SUNNY     80  66  62 NW8       29.83S
PETERSBURG     SUNNY     82  67  60 W8G17     29.88
$$




USA.gov is the U.S. government's official web portal to all federal, state and local government web resources and services.